Torna al catalogo

GEESAT 5-11

AttivoComunicazioniLEO
NORAD 65560·PAYLOAD·🇨🇳 China

Lanciato Sep 8, 2025 da Yellow Sea Launch Area

Loading…

Prossimi Passaggi (prossime 24 ore)

TLE

AggiornatoSource: Space-Track

Epoca: Sep 14, 2026, 14:41 UTC

1 65560U 25201L   26257.61240382  .00001130  00000-0  15991-3 0  9993
2 65560  49.9892 343.9490 0008444 323.0847  36.9509 14.84395208 55101

Traccia GEESAT 5-11 in tempo reale con AllMySat

Download on the App Store